TimeAST,TemperatureF,Dew PointF,Humidity,Sea Level PressureIn,VisibilityMPH,Wind Direction,Wind SpeedMPH,Gust SpeedMPH,PrecipitationIn,Events,Conditions,WindDirDegrees,DateUTC
12:00 AM,77.0,68.0,74,30.01,6.2,East,5.8,-,N/A,,Scattered Clouds,90,2013-02-07 04:00:00
1:00 AM,77.0,68.0,74,29.98,6.2,East,6.9,-,N/A,,Partly Cloudy,100,2013-02-07 05:00:00
2:00 AM,77,68,68,29.99,22,East,8.1,,,Rain,Light Rain Showers,90,2013-02-07 06:00:00
2:00 AM,77.0,68.0,74,29.98,6.2,East,8.1,-,N/A,,Scattered Clouds,90,2013-02-07 06:00:00
3:00 AM,77.0,68.0,74,29.95,6.2,East,6.9,-,N/A,,Scattered Clouds,90,2013-02-07 07:00:00
4:00 AM,77.0,68.0,74,29.95,6.2,ESE,5.8,-,N/A,,Scattered Clouds,120,2013-02-07 08:00:00
5:00 AM,76,69,72,29.96,22,ESE,5.8,,,,Partly Cloudy,120,2013-02-07 09:00:00
5:00 AM,77.0,68.0,74,29.95,6.2,East,5.8,-,N/A,,Scattered Clouds,100,2013-02-07 09:00:00
6:00 AM,77.0,69.8,78,29.98,6.2,ESE,4.6,-,N/A,,Partly Cloudy,110,2013-02-07 10:00:00
7:00 AM,77.0,68.0,74,29.98,6.2,ESE,6.9,-,N/A,,Partly Cloudy,110,2013-02-07 11:00:00
8:00 AM,78,69,66,30.01,31,ESE,9.2,,,,Partly Cloudy,120,2013-02-07 12:00:00
8:00 AM,78.8,69.8,74,30.01,6.2,ESE,9.2,-,N/A,,Scattered Clouds,120,2013-02-07 12:00:00
9:00 AM,80.6,69.8,70,30.01,6.2,ESE,6.9,-,N/A,,Scattered Clouds,120,2013-02-07 13:00:00
10:00 AM,80.6,69.8,70,30.01,6.2,ESE,8.1,-,N/A,,Mostly Cloudy,110,2013-02-07 14:00:00
11:00 AM,81,69,59,30.01,31,ESE,10.4,,,,Partly Cloudy,120,2013-02-07 15:00:00
11:00 AM,80.6,69.8,70,30.01,6.2,ESE,10.4,-,N/A,,Scattered Clouds,120,2013-02-07 15:00:00
12:00 PM,82.4,69.8,66,29.98,6.2,ESE,10.4,-,N/A,,Scattered Clouds,110,2013-02-07 16:00:00
1:00 PM,82.4,66.2,58,29.95,6.2,ESE,9.2,-,N/A,,Scattered Clouds,110,2013-02-07 17:00:00
2:00 PM,83,69,53,29.96,28,SE,8.1,,,,Mostly Cloudy,140,2013-02-07 18:00:00
2:00 PM,82.4,68.0,62,29.95,6.2,ESE,9.2,-,N/A,,Mostly Cloudy,120,2013-02-07 18:00:00
3:00 PM,82.4,68.0,62,29.92,6.2,East,9.2,-,N/A,,Mostly Cloudy,100,2013-02-07 19:00:00
4:00 PM,82.4,69.8,66,29.92,6.2,ESE,10.4,-,N/A,,Mostly Cloudy,110,2013-02-07 20:00:00
5:00 PM,81,70,61,29.96,25,East,11.5,,,,Scattered Clouds,80,2013-02-07 21:00:00
5:00 PM,80.6,69.8,70,29.95,6.2,ESE,11.5,-,N/A,,Partly Cloudy,110,2013-02-07 21:00:00
6:00 PM,78.8,69.8,74,29.95,6.2,East,10.4,-,N/A,,Scattered Clouds,90,2013-02-07 22:00:00
7:00 PM,77.0,68.0,74,29.95,6.2,ESE,10.4,-,N/A,,Mostly Cloudy,110,2013-02-07 23:00:00
8:00 PM,77,68,67,29.99,22,East,12.7,,,,Mostly Cloudy,100,2013-02-08 00:00:00
8:00 PM,77.0,68.0,74,29.98,6.2,East,12.7,-,N/A,,Mostly Cloudy,100,2013-02-08 00:00:00
9:00 PM,77.0,69.8,78,30.01,6.2,East,16.1,-,N/A,,Mostly Cloudy,90,2013-02-08 01:00:00
10:00 PM,77.0,69.8,78,30.01,6.2,East,11.5,-,N/A,,Mostly Cloudy,100,2013-02-08 02:00:00
11:00 PM,78,68,65,30.01,22,East,6.9,,,,Mostly Cloudy,100,2013-02-08 03:00:00
11:00 PM,78.8,68.0,69,30.01,6.2,East,6.9,-,N/A,,Mostly Cloudy,100,2013-02-08 03:00:00